Tracking 30995 objects as of 5-Jul-2025
HD Live streaming from Space Station
objects crossing your sky now

DELTA 1 DEB

Track DELTA 1 DEB now!
10-day predictions


NORAD ID: 720
Int'l Code: 1963-054C
Perigee: 657.4 km
Apogee: 807.7 km
Inclination: 58.5 °
Period: 99.3 minutes
Semi major axis: 7103 km
RCS: 0.0483 m2 (small)
Launch date: December 21, 1963
Source: United States (US)
Launch site: AIR FORCE WESTERN TEST RANGE (AFWTR)

Note: This is SATELLITE DEBRIS
Your satellite tracking list
COSMOS 1275 DEB
Track 1 satellite(s)




NASA's NSSDC Master Catalog

Two Line Element Set (TLE):
1 00720U 63054C   25185.75790599  .00000098  00000-0  64763-4 0  9996
2 00720  58.4727 291.9308 0105766 344.6685  15.1145 14.50081181231087
Source of the keplerian elements: AFSPC